User: anonymous   Login
Location: Cahas Mountain Overlook
(37.0833°N, 80.1000°W)
Time: 14:05:26
(UTC-04:00)
Language:

Explorer 11/Cluster Stage 4 - Orbit

View from above orbital plane
View from above orbital plane
View from above satellite
View from above satellite

Ground track
Ground track

The orbit data is extracted from the following two-line orbital elements,

1 00107U 61013A   24165.45727819  .00002731  00000-0  33292-3 0  9995
2 00107  28.7843 208.5484 0521147 145.7645 217.7682 14.15348743172165
Epoch (UTC): 13 June 2024 10:58:28
Eccentricity: 0.0521147
inclination: 28.7843°
perigee height: 465 km
apogee height: 1217 km
right ascension of ascending node: 208.5484°
argument of perigee: 145.7645°
revolutions per day: 14.15348743
mean anomaly at epoch: 217.7682°
orbit number at epoch: 17216

The dashed part of the orbit path shows where the satellite is in the earth's shadow,  

DLR